Wind_Speed
58 62 62 64 63 64 63 63 62 62 64 64 64 64 65 64 65 66 65 64 65 67 68 67 68 68 68 67 67 65 64 62 62 60 59 54 58 60 60 61 61 62 61
55 55 57 59 60 61 61 61 61 60 60 61 62 61 60 60 61 62 61 59 60 60 64 62 61 58 58 57 53 54 54 54 57 55 58 58 57 60 58 59 61 61 62
45 48 52 54 55 56 57 57 58 57 55 55 55 56 56 55 55 54 56 57 53 52 56 55 53 49 44 43 46 44 47 50 51 53 53 54 55 56 60 60 59 60 65
47 48 51 51 52 56 55 54 52 51 51 52 53 52 51 50 50 51 52 51 50 48 45 39 38 35 30 35 34 38 38 43 45 47 48 46 48 50 54 58 59 59 61
48 51 53 54 59 58 56 56 53 52 51 51 53 52 50 48 48 49 50 47 41 43 39 29 24 17 22 22 27 30 30 31 34 37 41 43 47 46 45 44 47 49 47
48 49 50 53 56 60 62 60 56 54 53 51 52 51 51 49 51 51 50 43 37 35 29 19 13 19 25 22 31 29 31 29 29 31 34 35 37 39 39 41 40 41 42
52 52 50 51 56 59 59 58 59 58 56 53 52 53 55 56 56 55 48 40 34 29 23 21 19 25 22 23 32 35 39 36 29 27 27 26 27 29 34 33 34 33 33
53 62 58 52 56 60 59 56 54 55 56 54 54 57 59 59 58 54 48 38 33 34 33 32 29 23 22 24 39 42 42 28 18 21 21 20 21 19 23 26 27 30 30
61 64 62 57 58 59 61 57 54 54 52 54 54 55 59 58 59 56 49 39 36 42 40 34 29 24 19 25 37 40 35 29 17 18 11 12 16 19 20 23 24 24 25
60 67 68 64 61 59 59 58 53 53 50 48 50 52 53 52 54 53 51 43 37 41 45 34 21 22 20 25 33 32 22 24 8 15 15 17 22 22 22 21 20 22 24
63 68 68 66 62 59 58 55 46 45 45 47 45 46 45 46 48 49 49 48 41 43 47 36 29 16 37 34 35 38 34 32 38 41 24 18 21 21 18 16 16 15 17
64 67 73 65 62 60 56 54 46 43 42 42 45 49 46 46 46 47 50 49 39 46 52 43 37 34 36 38 42 41 42 42 35 30 26 28 27 20 18 16 13 12 15
77 79 71 71 64 58 55 48 45 45 43 44 46 46 47 46 45 54 60 58 45 45 56 44 45 41 43 44 40 40 38 33 29 27 35 28 27 22 17 14 11 14 18
69 68 64 69 62 54 51 47 43 40 40 41 46 51 48 48 50 55 58 51 46 43 59 51 48 46 39 45 41 42 41 35 38 33 30 17 20 18 16 13 15 15 23
71 67 61 65 60 52 48 48 47 43 43 45 48 46 45 47 47 53 50 48 42 43 65 56 46 51 46 46 41 40 39 35 28 23 22 21 18 16 14 14 17 22 22
72 68 65 62 64 54 51 48 47 42 45 45 45 46 48 46 52 48 49 43 39 43 68 63 55 58 51 45 42 42 38 36 30 22 25 22 18 17 15 17 21 22 17
71 71 68 64 63 58 52 51 44 42 43 42 45 45 48 48 47 49 48 40 38 45 64 70 59 60 61 55 48 45 39 40 33 22 28 21 21 20 18 18 25 25 25
72 73 75 65 67 58 48 47 40 43 42 43 50 50 48 51 51 53 46 36 38 46 57 69 63 66 62 63 61 57 47 39 36 35 34 26 24 23 21 23 26 26 28
67 69 75 70 62 55 44 42 40 43 46 52 55 49 50 56 54 56 43 36 39 44 54 69 64 68 64 62 63 56 54 55 47 43 33 30 28 29 30 28 28 28 29
61 61 64 66 54 57 44 41 42 48 50 58 55 53 55 54 57 60 39 36 38 44 51 60 64 63 69 59 65 63 59 58 49 44 39 36 37 35 33 31 31 34 31
54 55 55 53 52 54 45 49 47 52 53 54 55 54 54 57 59 51 36 37 41 44 50 52 54 55 62 64 47 64 62 56 51 47 44 40 44 36 37 36 38 38 34
51 49 48 50 54 53 42 41 51 54 55 54 53 54 56 58 56 42 36 40 43 48 47 50 54 54 52 55 57 50 56 57 56 49 46 46 46 39 39 42 38 37 37
44 44 45 53 49 42 33 43 55 53 52 53 53 53 57 54 45 37 38 42 45 47 49 51 47 45 45 52 51 50 50 52 55 51 47 50 48 42 42 40 38 40 39
37 41 46 43 43 27 42 52 51 51 49 53 54 57 57 49 37 38 42 46 43 45 52 52 50 43 41 41 45 48 48 50 55 52 51 51 50 46 45 42 42 42 42
37 40 41 41 31 41 42 41 43 46 51 56 58 60 51 35 38 41 44 43 44 42 48 46 46 52 42 43 45 52 49 52 51 56 53 56 58 50 48 45 45 47 44
37 34 40 31 33 36 38 44 45 50 56 59 61 47 35 34 38 41 39 42 42 40 40 40 45 46 50 44 45 51 51 52 59 58 58 58 57 52 49 48 47 49 46
Wind_Direction
264 266 266 267 267 268 267 267 268 269 271 271 271 273 275 275 275 275 276 277 278 278 279 279 280 280 279 279 280 278 277 277 274 272 269 267 270 270 267 262 262 265 264
263 266 266 266 266 268 269 269 269 269 269 271 271 271 273 273 273 274 275 277 279 281 282 281 282 282 280 279 278 274 273 271 268 268 268 265 266 267 268 266 263 262 265
267 266 270 269 269 267 268 269 269 268 270 271 272 271 271 271 272 275 276 277 279 282 283 284 284 282 278 273 268 267 267 266 267 267 265 267 266 264 264 265 266 266 267
276 275 271 269 271 270 267 266 268 269 270 273 272 271 272 272 273 274 279 281 283 283 285 285 281 272 267 263 264 262 263 265 266 264 264 265 265 266 267 265 266 267 268
282 279 279 277 273 270 270 269 266 267 269 273 276 273 275 275 274 277 280 284 287 282 277 280 271 260 254 273 279 275 273 274 274 270 269 266 266 267 270 267 267 266 268
279 278 278 278 276 276 275 273 273 272 270 273 277 276 277 277 281 283 284 285 282 273 263 257 249 255 268 298 299 284 276 284 280 279 274 276 277 276 270 268 265 266 264
283 280 284 283 280 278 277 276 274 273 272 273 275 275 277 279 283 286 288 284 274 254 226 212 217 258 273 287 272 282 279 293 292 294 288 287 286 285 278 274 271 268 263
280 285 284 287 284 278 275 274 275 275 273 272 272 276 278 282 284 286 288 281 263 229 217 210 225 229 243 280 267 274 284 290 295 306 296 298 297 291 283 280 272 272 272
278 283 288 286 288 280 273 273 272 275 275 273 272 274 276 279 283 281 286 273 251 226 214 214 218 217 238 271 275 276 283 282 298 286 323 321 323 315 302 286 278 277 272
271 276 282 284 283 279 275 271 272 272 271 271 273 274 278 278 280 283 284 278 258 229 211 208 226 217 236 261 270 268 277 275 275 286 328 329 320 326 308 300 287 277 274
271 271 275 280 278 277 272 270 269 272 268 269 276 278 280 281 281 281 281 276 270 235 208 211 209 160 235 253 245 261 266 269 277 276 288 323 308 323 320 305 292 281 271
271 272 276 276 275 276 272 269 268 269 268 271 273 276 279 283 285 284 279 274 263 249 209 213 188 191 227 227 255 261 261 270 273 265 251 291 295 308 322 307 286 285 289
274 274 271 272 270 272 269 265 264 265 266 266 270 276 281 282 283 285 281 275 265 252 209 208 200 206 212 230 249 247 256 258 256 254 278 288 273 299 329 307 281 302 307
274 269 265 266 266 269 266 262 266 268 266 270 276 277 278 278 288 289 283 273 270 241 206 208 206 208 223 227 238 246 253 257 265 271 285 243 277 302 320 328 280 301 319
270 265 262 265 266 264 258 262 265 269 269 272 272 274 274 284 285 286 285 276 261 235 206 206 207 206 210 225 230 238 244 248 249 269 271 255 267 287 303 289 321 299 313
264 262 260 258 267 263 257 258 261 262 268 271 269 274 277 286 290 294 289 273 254 227 204 204 212 216 216 217 227 236 238 246 250 270 259 274 265 275 282 281 303 304 310
257 254 255 257 262 263 255 255 257 266 268 271 273 274 286 290 296 301 290 272 244 222 208 207 211 215 221 218 217 224 237 244 248 260 255 265 261 269 285 276 285 299 296
255 251 249 251 257 258 253 251 255 271 265 272 275 280 288 294 300 303 290 264 241 220 212 211 212 216 219 227 229 229 234 239 249 258 263 255 256 267 273 276 278 293 294
248 247 244 247 252 252 243 249 259 270 267 271 274 282 289 294 297 302 283 255 234 219 211 212 214 217 221 227 230 234 241 246 253 258 257 249 251 271 278 281 275 275 289
250 242 241 241 243 246 253 257 261 266 266 268 275 281 291 289 296 299 272 245 230 219 213 210 216 216 221 229 237 236 239 247 250 256 251 252 247 273 265 264 270 273 283
245 242 234 235 231 238 250 251 256 257 263 271 275 281 285 288 296 290 258 237 219 216 217 214 220 224 222 219 231 241 241 244 249 247 249 252 246 267 260 267 264 271 283
241 233 225 223 222 236 247 254 257 260 266 269 273 280 284 291 294 273 246 234 222 215 215 216 221 226 227 225 232 230 234 242 243 242 247 254 254 256 261 263 260 273 277
234 227 209 210 224 234 248 252 256 261 266 271 276 281 288 294 279 252 236 226 224 225 221 218 219 223 231 233 233 234 233 235 238 242 243 246 248 256 258 259 266 272 273
216 201 197 210 227 242 252 253 257 263 271 276 281 286 290 284 253 237 228 226 226 227 227 226 225 223 222 224 229 227 225 231 234 238 236 242 244 251 254 256 264 263 271
190 186 199 210 234 248 247 256 266 269 273 279 287 289 282 254 232 231 228 226 233 237 235 233 233 228 225 221 229 224 225 227 230 236 234 233 243 248 252 255 262 258 269
179 190 207 220 233 238 252 260 267 271 273 279 286 278 254 230 227 227 226 233 237 240 238 236 236 234 227 226 228 229 231 231 233 238 239 241 244 246 251 257 258 263 267
Height
10825 10821 10821 10819 10820 10820 10821 10821 10821 10820 10820 10822 10821 10820 10819 10820 10819 10820 10820 10819 10818 10817 10815 10816 10816 10815 10815 10817 10817 10817 10817 10817 10817 10816 10816 10815 10815 10814 10815 10813 10813 10811 10813
10814 10811 10810 10808 10809 10808 10809 10810 10811 10811 10811 10810 10810 10810 10810 10810 10809 10809 10808 10808 10808 10807 10805 10806 10807 10805 10804 10804 10806 10804 10803 10803 10804 10805 10805 10804 10805 10803 10803 10802 10802 10802 10803
10803 10803 10799 10797 10797 10797 10797 10798 10799 10800 10800 10799 10799 10799 10800 10799 10799 10798 10797 10798 10799 10799 10797 10797 10798 10796 10796 10794 10792 10793 10791 10791 10794 10795 10794 10795 10795 10793 10792 10792 10792 10794 10793
10792 10792 10789 10789 10786 10783 10784 10785 10786 10788 10789 10789 10788 10788 10789 10790 10789 10788 10788 10789 10790 10790 10789 10788 10789 10787 10786 10784 10783 10782 10784 10784 10785 10786 10786 10789 10784 10785 10784 10785 10785 10784 10783
10780 10778 10778 10778 10774 10772 10772 10774 10776 10776 10777 10778 10777 10777 10778 10779 10778 10778 10779 10782 10782 10782 10781 10781 10783 10782 10779 10778 10776 10775 10776 10778 10779 10779 10779 10779 10778 10777 10777 10776 10776 10776 10775
10767 10767 10768 10766 10763 10761 10762 10763 10765 10767 10767 10767 10766 10766 10767 10767 10767 10768 10771 10773 10775 10774 10774 10777 10778 10777 10775 10771 10771 10769 10769 10772 10773 10773 10774 10773 10773 10771 10768 10768 10768 10768 10768
10755 10754 10757 10756 10754 10750 10750 10752 10752 10754 10755 10756 10755 10754 10755 10756 10757 10757 10761 10764 10766 10766 10765 10766 10768 10770 10769 10772 10766 10763 10764 10767 10768 10769 10769 10767 10765 10763 10762 10760 10760 10760 10761
10746 10741 10744 10746 10743 10740 10738 10740 10741 10742 10743 10743 10744 10743 10743 10744 10744 10746 10750 10753 10753 10755 10754 10754 10756 10761 10761 10764 10757 10757 10759 10763 10764 10765 10764 10760 10758 10756 10755 10754 10754 10754 10754
10732 10729 10732 10732 10732 10729 10727 10729 10730 10731 10731 10731 10732 10731 10730 10733 10733 10735 10739 10742 10742 10743 10745 10746 10748 10752 10753 10754 10752 10749 10751 10757 10760 10759 10757 10754 10753 10752 10751 10749 10748 10749 10749
10722 10715 10718 10720 10721 10718 10716 10718 10719 10719 10720 10719 10720 10719 10720 10722 10722 10724 10727 10729 10727 10732 10736 10739 10740 10746 10746 10748 10747 10744 10745 10752 10755 10754 10753 10750 10750 10749 10748 10745 10744 10745 10746
10714 10703 10703 10707 10707 10707 10705 10708 10708 10708 10709 10709 10709 10709 10710 10712 10713 10714 10715 10715 10716 10718 10725 10731 10734 10740 10733 10745 10738 10739 10739 10743 10747 10747 10749 10746 10747 10747 10745 10742 10742 10742 10742
10703 10697 10688 10694 10694 10694 10694 10696 10697 10697 10699 10700 10699 10697 10700 10701 10702 10701 10702 10702 10703 10705 10715 10721 10726 10731 10734 10736 10730 10733 10733 10737 10740 10743 10743 10747 10745 10745 10743 10740 10739 10739 10739
10690 10685 10677 10679 10682 10683 10684 10686 10686 10687 10688 10689 10689 10687 10690 10691 10690 10689 10690 10688 10690 10695 10705 10712 10716 10722 10725 10728 10725 10725 10726 10732 10733 10737 10741 10742 10742 10742 10740 10737 10738 10738 10737
10672 10669 10667 10662 10668 10671 10672 10674 10675 10676 10677 10679 10679 10678 10680 10679 10678 10676 10674 10674 10675 10681 10693 10703 10709 10715 10718 10720 10719 10718 10719 10723 10728 10732 10736 10736 10738 10738 10736 10734 10735 10734 10733
10657 10658 10654 10647 10653 10658 10661 10662 10664 10666 10668 10669 10670 10668 10669 10669 10666 10664 10660 10660 10661 10668 10681 10691 10697 10704 10705 10708 10712 10712 10712 10718 10721 10726 10730 10732 10734 10733 10731 10731 10731 10731 10729
10637 10642 10637 10640 10636 10645 10649 10651 10653 10655 10657 10658 10659 10660 10659 10658 10655 10651 10647 10646 10649 10656 10668 10680 10686 10693 10694 10697 10702 10705 10706 10712 10715 10720 10724 10726 10728 10728 10728 10728 10728 10727 10725
10617 10626 10622 10624 10625 10632 10637 10641 10645 10645 10646 10649 10649 10648 10649 10646 10642 10639 10634 10634 10638 10646 10656 10668 10675 10681 10684 10686 10689 10696 10700 10704 10709 10713 10719 10721 10722 10722 10723 10723 10723 10722 10721
10593 10606 10604 10609 10612 10619 10624 10630 10635 10633 10636 10637 10637 10639 10639 10635 10631 10627 10623 10623 10628 10635 10645 10654 10663 10671 10675 10678 10682 10690 10694 10695 10702 10708 10713 10715 10716 10716 10718 10719 10718 10717 10716
10570 10579 10585 10594 10601 10604 10612 10618 10623 10622 10625 10626 10627 10627 10628 10625 10621 10617 10614 10613 10619 10627 10635 10644 10653 10659 10666 10670 10675 10684 10689 10690 10695 10702 10706 10708 10710 10710 10712 10712 10713 10712 10712
10550 10560 10570 10580 10591 10589 10597 10607 10610 10612 10614 10615 10618 10617 10616 10614 10611 10607 10605 10606 10612 10619 10626 10634 10642 10648 10656 10661 10666 10674 10681 10683 10689 10696 10699 10702 10703 10703 10705 10706 10707 10706 10706
10533 10544 10559 10570 10578 10579 10583 10595 10600 10601 10602 10605 10607 10608 10606 10603 10601 10596 10597 10600 10606 10612 10618 10625 10632 10638 10647 10654 10656 10663 10674 10676 10682 10690 10691 10695 10696 10697 10698 10699 10701 10700 10699
10520 10532 10547 10556 10564 10566 10576 10585 10587 10590 10593 10594 10596 10596 10594 10592 10588 10586 10590 10594 10600 10605 10611 10619 10625 10631 10639 10645 10648 10655 10665 10670 10675 10681 10683 10686 10689 10690 10692 10692 10693 10693 10692
10510 10523 10535 10545 10553 10559 10570 10575 10577 10581 10581 10582 10582 10583 10582 10579 10577 10578 10583 10588 10592 10598 10604 10611 10617 10625 10631 10637 10639 10649 10658 10663 10664 10672 10676 10678 10680 10682 10683 10685 10686 10686 10685
10504 10515 10526 10536 10542 10552 10562 10564 10567 10570 10569 10568 10569 10568 10567 10566 10566 10571 10576 10581 10585 10590 10595 10602 10608 10616 10623 10628 10631 10639 10647 10653 10654 10662 10668 10669 10669 10673 10675 10677 10677 10677 10677
10498 10509 10520 10526 10536 10546 10550 10554 10556 10557 10557 10556 10556 10554 10552 10553 10558 10563 10570 10575 10579 10583 10588 10593 10600 10607 10615 10621 10624 10629 10636 10642 10647 10650 10656 10659 10660 10662 10665 10667 10668 10669 10669
10495 10505 10515 10521 10529 10534 10539 10544 10545 10545 10546 10543 10542 10539 10540 10544 10551 10558 10564 10568 10571 10575 10579 10584 10591 10597 10605 10611 10615 10621 10628 10633 10637 10640 10643 10646 10648 10653 10656 10658 10658 10658 10660